Location: Gadern
(49.5873°N, 8.8138°E)
Time: 00:14:42
(UTC+00:00)

USA 245 - Pass Details

Date: 19 May 2025
Orbit: 292 x 1030 km, 97.9° (Epoch: 02 June)

Event Time Altitude Azimuth Distance (km) Brightness Sun altitude
Exits shadow 20:37:31 12° 174° (S) 1,861 5.5 -11.6°
Maximum altitude 20:41:35 72° 258° (WSW) 754 4.0 -12.0°
Drops below altitude 10° 20:47:01 10° 343° (NNW) 2,457 7.8 -12.5°
Sets 20:49:39 0° 346° (NNW) 3,504 8.8 -12.8°
